Wind_Speed
21 20 19 19 18 18 17 17 16 16 15 15 15 14 14 14 13 13 13 13 13 12 12 12 11 11 11 10 10 9 9 8 8 8 7 7 7 6 6 7 7 7 7
23 22 21 21 20 20 19 19 18 18 17 17 17 16 15 15 15 15 14 15 15 14 14 13 13 12 12 12 11 11 11 10 10 10 10 10 9 9 8 8 8 9 9
24 24 23 23 22 22 21 21 20 20 20 19 19 19 18 17 17 16 16 16 17 16 16 15 15 14 14 13 13 13 13 12 12 11 11 12 11 11 11 11 10 10 11
26 25 25 24 24 24 23 23 22 22 21 21 21 21 20 19 19 18 18 18 18 18 17 17 17 16 15 15 15 15 14 14 13 13 13 13 13 13 13 13 13 13 13
28 27 26 25 25 25 24 24 24 24 23 23 23 22 22 21 20 20 19 19 19 19 18 18 18 18 17 17 17 17 16 16 16 15 15 15 15 15 15 15 15 14 15
30 29 28 28 27 27 26 26 25 25 25 25 25 24 23 22 21 21 20 20 20 20 20 20 20 20 19 19 19 19 19 18 18 17 17 17 17 17 17 17 17 17 17
31 31 30 30 29 28 28 28 27 27 27 26 26 26 24 23 22 22 21 21 21 22 22 21 21 21 21 21 21 21 21 21 20 20 20 19 19 19 19 19 19 19 20
32 32 31 31 31 30 29 29 29 28 28 28 27 27 26 25 24 24 23 23 23 23 23 23 23 23 23 23 23 23 23 23 22 22 22 22 22 22 22 22 22 22 22
33 32 32 32 32 31 31 30 30 29 29 29 29 28 28 27 26 25 25 26 25 25 25 25 25 25 25 25 25 25 25 24 24 24 24 24 24 24 24 25 25 25 25
34 34 33 33 33 33 32 32 31 30 30 29 30 30 29 29 28 27 27 27 27 27 26 26 26 27 27 27 27 27 26 26 26 26 26 26 27 27 27 27 28 27 27
34 34 34 34 34 34 34 33 33 32 31 31 31 31 31 30 29 29 29 28 28 28 28 28 28 28 29 29 29 29 28 28 28 28 29 29 29 29 29 30 30 30 30
35 35 35 35 35 35 35 35 34 34 33 33 33 33 33 32 31 31 30 30 29 29 29 29 30 30 30 30 30 29 29 29 29 30 30 31 31 32 32 32 32 32 32
36 36 36 36 36 36 36 36 36 35 35 34 35 35 34 34 33 33 32 31 31 30 30 30 30 31 30 30 30 30 30 30 30 31 31 32 32 33 34 34 34 34 34
36 36 36 36 37 37 37 37 37 37 36 36 36 36 36 35 35 35 34 33 33 32 32 32 32 32 31 31 32 32 32 32 31 32 32 33 33 34 34 35 35 35 36
35 36 37 37 37 37 38 38 38 38 38 38 38 38 38 37 36 36 35 35 35 34 34 34 34 34 34 34 34 34 34 34 33 34 34 34 35 35 35 35 36 36 37
36 37 37 37 38 38 38 39 39 39 39 39 39 39 39 39 38 37 37 36 36 36 36 35 35 35 35 35 35 35 36 36 36 36 36 36 37 37 37 36 37 37 38
36 37 38 38 38 38 38 38 39 39 38 39 39 39 39 40 38 38 38 38 38 37 37 36 36 37 37 36 36 36 37 37 37 37 37 38 38 38 38 39 39 39 39
37 37 38 39 39 39 39 39 40 39 39 39 40 40 40 40 40 40 40 40 39 39 39 38 38 38 38 38 39 39 39 39 39 38 39 39 39 39 40 40 41 41 42
37 38 38 39 39 39 40 40 40 40 39 38 39 40 41 41 41 41 41 41 41 41 41 40 40 41 40 40 40 40 40 40 40 40 40 41 41 41 42 42 43 43 44
37 38 39 39 39 40 41 41 41 40 40 39 39 40 40 41 42 42 43 43 43 43 43 43 43 43 43 42 43 43 43 43 43 43 42 42 43 42 43 44 45 46 46
36 37 38 39 40 40 41 41 42 42 41 41 40 41 41 42 42 43 43 44 44 45 45 45 45 45 45 45 45 45 44 44 45 45 44 44 44 45 46 47 47 48 48
37 37 38 39 40 40 41 41 42 43 43 44 44 42 43 43 44 44 44 45 46 47 48 47 47 47 47 46 46 46 46 45 45 45 46 45 45 46 47 47 48 48 49
39 39 39 40 40 41 41 41 42 42 43 44 44 44 44 45 45 46 46 47 48 49 49 49 49 49 49 48 48 48 48 47 46 45 46 46 46 46 47 47 47 48 48
39 40 40 40 41 41 42 42 43 43 43 43 44 45 46 46 46 46 47 48 48 49 50 50 50 50 50 50 49 49 49 49 48 47 46 46 47 46 46 46 47 47 48
39 39 40 40 40 41 42 43 43 43 44 44 46 47 47 48 48 48 47 48 48 48 49 50 50 50 51 51 50 49 50 50 50 49 48 47 47 47 47 46 46 46 47
38 39 40 40 40 41 42 43 44 44 45 45 46 47 48 49 49 49 49 49 49 49 50 50 51 51 50 50 50 50 50 51 51 50 50 49 49 48 47 47 46 47 47
Wind_Direction
253 254 254 256 258 259 261 260 258 257 256 256 254 251 249 247 247 247 249 248 248 250 254 256 256 258 258 256 256 258 264 268 273 275 277 278 280 280 283 285 285 284 284
253 254 255 256 258 260 261 260 258 256 255 254 253 251 249 248 248 248 251 251 251 252 255 257 257 259 258 257 258 262 265 269 271 272 274 274 276 276 279 281 280 280 282
253 254 256 257 258 259 260 260 258 256 255 254 252 250 250 250 250 251 251 251 252 254 254 257 258 259 258 258 260 263 265 269 271 272 272 272 273 273 274 275 276 276 278
254 254 255 256 257 258 259 259 258 257 255 254 253 251 250 251 253 254 254 253 253 255 253 256 258 259 260 260 262 264 265 267 269 271 272 272 272 271 271 273 274 274 275
254 255 255 256 256 257 258 259 259 257 256 256 255 252 252 252 254 255 254 253 255 255 254 256 258 260 261 262 264 264 265 267 270 271 272 272 273 272 272 273 274 275 275
255 255 256 256 256 256 257 258 258 258 259 258 256 253 252 252 253 254 254 254 255 254 254 255 258 260 260 262 264 265 265 267 270 271 272 273 273 272 272 273 273 274 275
255 255 255 255 255 256 257 258 259 258 259 257 255 252 250 250 251 252 253 253 255 255 255 257 259 260 261 263 265 266 266 267 268 270 272 272 272 271 271 271 272 273 273
254 254 254 254 255 256 257 258 258 258 258 256 253 251 249 249 250 251 253 254 256 257 257 259 260 262 262 263 265 266 267 268 268 269 271 271 271 271 271 272 272 272 273
254 253 252 252 253 255 257 256 257 257 258 255 253 250 249 249 250 252 254 256 256 258 259 260 261 262 262 264 265 266 266 266 266 268 269 270 271 271 271 272 272 272 274
254 253 252 253 254 254 256 256 256 255 256 255 253 250 250 250 252 254 255 256 258 259 261 262 263 264 265 265 265 266 266 266 266 267 268 269 270 271 271 272 272 273 274
254 254 253 254 254 255 256 256 254 253 255 254 253 252 251 251 252 254 256 257 259 260 262 263 265 266 266 265 265 265 266 266 266 267 268 269 269 271 272 272 272 273 273
254 254 254 255 255 255 256 256 254 253 255 255 255 254 253 252 252 254 256 257 259 260 262 263 265 265 266 266 266 265 265 266 267 269 269 269 270 271 272 272 272 272 273
254 254 254 255 255 256 256 256 254 254 255 256 256 255 254 254 254 255 256 258 259 261 262 263 265 266 266 266 267 267 267 267 269 270 271 271 271 272 272 272 272 272 273
254 253 253 254 254 255 255 254 254 255 255 255 256 255 255 256 256 256 256 258 259 260 262 263 264 265 266 268 268 269 269 269 270 271 272 273 273 274 273 273 273 273 273
254 254 254 254 255 255 255 254 255 255 255 256 257 256 256 257 257 257 257 257 259 260 261 263 264 266 268 269 270 270 270 270 271 272 273 274 274 274 273 274 274 274 274
254 254 255 255 254 255 255 254 255 256 256 257 258 257 256 257 257 257 258 258 259 260 261 263 264 266 268 270 271 272 271 271 272 272 273 273 274 274 274 274 273 274 274
255 255 255 255 255 255 255 255 255 256 256 257 258 257 257 257 257 258 258 258 259 261 262 262 264 266 268 270 272 272 272 272 273 272 273 273 274 274 274 274 274 274 274
257 256 256 256 256 256 256 257 256 257 257 258 258 257 256 256 257 259 259 259 259 260 261 263 265 266 268 269 271 272 272 273 273 273 273 274 274 274 274 273 273 273 273
259 258 257 257 257 257 256 257 257 257 258 258 258 256 256 256 257 258 260 260 260 261 262 264 266 266 268 269 271 272 272 272 273 273 276 276 275 275 274 273 273 274 275
260 259 257 257 257 257 257 257 257 257 258 258 257 257 256 257 257 259 261 260 261 263 264 265 265 267 268 269 270 272 273 273 273 273 275 277 276 275 276 275 275 275 275
260 259 257 257 257 258 257 258 258 258 259 258 258 257 257 258 259 260 261 262 262 263 264 266 266 267 268 269 270 272 272 273 274 275 276 277 278 277 277 277 277 277 276
262 261 259 258 258 259 259 259 259 260 260 259 258 258 258 259 260 261 262 263 263 264 265 267 268 268 268 269 271 272 272 273 274 275 276 278 279 280 279 279 279 278 277
262 262 261 260 259 260 260 259 260 261 260 260 259 259 259 261 262 263 265 265 264 264 266 267 269 270 270 270 271 273 274 274 275 275 277 278 280 280 281 280 278 277 277
262 262 262 262 261 261 261 261 261 262 262 261 261 260 261 262 263 264 267 266 265 265 266 267 268 269 270 271 272 273 273 274 275 276 277 278 280 281 282 280 278 277 277
262 262 262 262 262 262 262 262 262 262 263 262 262 262 262 263 263 264 268 268 267 267 267 267 267 269 270 271 272 273 273 273 275 276 276 277 279 280 280 280 279 279 278
261 262 262 263 263 263 263 263 263 263 264 263 263 263 263 264 265 266 268 269 268 267 267 267 268 269 269 270 271 272 273 274 275 276 276 276 276 277 278 278 279 279 280
Height
5832 5833 5834 5835 5836 5836 5837 5837 5838 5838 5839 5839 5840 5841 5842 5842 5843 5844 5844 5845 5846 5846 5847 5847 5847 5848 5848 5849 5849 5849 5850 5850 5850 5851 5851 5851 5851 5852 5852 5852 5852 5852 5852
5828 5829 5830 5831 5832 5833 5833 5834 5834 5835 5836 5836 5837 5838 5839 5840 5841 5841 5842 5843 5843 5844 5845 5845 5845 5846 5846 5847 5847 5847 5848 5848 5848 5849 5849 5849 5850 5850 5850 5850 5850 5850 5850
5823 5825 5826 5827 5828 5829 5829 5830 5831 5831 5832 5833 5834 5835 5836 5837 5838 5839 5840 5840 5841 5842 5842 5843 5843 5843 5844 5844 5845 5845 5845 5846 5846 5847 5847 5847 5847 5847 5847 5848 5848 5848 5848
5819 5821 5821 5822 5823 5824 5825 5826 5827 5827 5828 5829 5830 5832 5833 5834 5835 5836 5837 5837 5838 5839 5839 5840 5840 5841 5841 5842 5842 5842 5843 5843 5844 5844 5844 5845 5845 5845 5845 5845 5845 5845 5845
5814 5816 5817 5818 5819 5820 5821 5822 5822 5823 5824 5825 5826 5828 5829 5830 5831 5832 5833 5834 5835 5835 5836 5837 5837 5838 5838 5839 5839 5839 5840 5840 5841 5841 5841 5842 5842 5842 5842 5842 5842 5842 5842
5809 5810 5812 5813 5814 5815 5816 5817 5818 5819 5819 5820 5822 5823 5825 5826 5827 5828 5829 5830 5831 5832 5832 5833 5834 5834 5835 5835 5836 5836 5836 5837 5837 5837 5838 5838 5838 5838 5838 5839 5838 5839 5839
5804 5805 5806 5808 5809 5810 5811 5812 5813 5814 5815 5816 5817 5818 5820 5822 5823 5824 5825 5826 5827 5828 5829 5829 5830 5830 5831 5831 5832 5832 5832 5832 5833 5833 5834 5834 5834 5834 5834 5834 5834 5834 5834
5798 5799 5801 5802 5804 5805 5806 5807 5808 5809 5810 5811 5812 5814 5815 5817 5818 5820 5821 5822 5823 5824 5824 5825 5825 5826 5826 5827 5827 5827 5828 5828 5828 5828 5829 5829 5829 5829 5829 5829 5829 5829 5829
5791 5793 5795 5796 5798 5799 5801 5802 5803 5804 5805 5806 5807 5809 5810 5812 5813 5815 5816 5817 5818 5819 5820 5820 5821 5821 5821 5822 5822 5822 5823 5823 5823 5824 5824 5824 5824 5824 5824 5824 5824 5824 5824
5785 5787 5788 5790 5792 5793 5795 5796 5797 5798 5799 5801 5802 5803 5804 5806 5808 5809 5810 5812 5813 5813 5814 5815 5815 5816 5816 5816 5816 5817 5817 5817 5818 5818 5818 5818 5818 5818 5818 5818 5818 5818 5818
5778 5780 5782 5784 5786 5787 5788 5790 5791 5793 5794 5795 5796 5797 5799 5801 5802 5804 5805 5806 5807 5808 5808 5809 5809 5810 5810 5810 5810 5811 5811 5811 5811 5812 5812 5812 5812 5812 5812 5811 5811 5811 5811
5772 5773 5775 5777 5779 5780 5782 5783 5785 5786 5788 5789 5790 5791 5792 5794 5796 5797 5798 5799 5800 5801 5802 5802 5803 5803 5804 5804 5804 5804 5804 5804 5805 5805 5805 5805 5804 5804 5804 5804 5804 5804 5804
5765 5766 5768 5770 5772 5773 5775 5776 5778 5779 5781 5782 5783 5784 5786 5787 5789 5790 5792 5793 5794 5794 5795 5796 5796 5797 5797 5797 5797 5797 5797 5797 5798 5798 5797 5797 5797 5797 5796 5796 5796 5796 5796
5757 5759 5761 5763 5764 5766 5767 5768 5770 5772 5773 5775 5776 5777 5779 5780 5782 5783 5785 5786 5787 5788 5788 5789 5789 5790 5790 5790 5791 5790 5790 5790 5790 5790 5790 5789 5789 5788 5788 5788 5787 5787 5787
5750 5751 5753 5755 5756 5758 5759 5761 5762 5764 5766 5767 5768 5770 5771 5773 5774 5776 5777 5778 5779 5780 5781 5782 5782 5783 5783 5783 5783 5783 5783 5783 5782 5782 5782 5781 5781 5780 5780 5779 5779 5778 5778
5742 5743 5745 5747 5748 5749 5751 5753 5754 5756 5757 5759 5760 5761 5763 5764 5766 5768 5769 5770 5771 5772 5773 5774 5774 5775 5775 5775 5775 5775 5775 5774 5774 5774 5773 5773 5772 5772 5772 5771 5770 5769 5769
5733 5735 5737 5738 5740 5741 5743 5744 5746 5747 5748 5750 5752 5753 5754 5756 5757 5759 5760 5762 5763 5764 5765 5766 5766 5766 5767 5767 5766 5766 5766 5765 5765 5765 5764 5764 5764 5763 5762 5761 5761 5760 5760
5725 5726 5728 5730 5731 5733 5734 5736 5737 5738 5740 5741 5743 5744 5745 5747 5749 5750 5752 5753 5754 5755 5756 5757 5757 5758 5758 5758 5758 5757 5757 5756 5756 5755 5755 5754 5754 5753 5753 5752 5751 5750 5750
5717 5718 5720 5721 5722 5724 5725 5727 5728 5730 5731 5732 5734 5735 5737 5738 5740 5741 5742 5744 5745 5745 5747 5747 5748 5749 5749 5749 5748 5748 5747 5747 5746 5746 5745 5744 5744 5743 5742 5742 5741 5740 5739
5708 5709 5711 5712 5714 5715 5716 5718 5719 5721 5722 5724 5725 5726 5728 5729 5730 5732 5733 5734 5735 5735 5737 5737 5738 5738 5739 5739 5738 5738 5737 5737 5736 5735 5735 5734 5733 5732 5731 5730 5729 5729 5727
5699 5700 5702 5703 5704 5706 5707 5709 5710 5712 5713 5714 5715 5717 5718 5719 5720 5721 5722 5724 5724 5725 5726 5727 5727 5728 5728 5728 5728 5728 5727 5726 5726 5725 5724 5723 5722 5721 5720 5719 5717 5716 5715
5690 5691 5692 5693 5695 5696 5697 5699 5700 5702 5703 5704 5705 5707 5708 5709 5710 5711 5712 5713 5714 5714 5715 5715 5716 5716 5716 5716 5716 5716 5716 5717 5715 5714 5712 5711 5710 5709 5707 5706 5705 5703 5702
5681 5682 5682 5683 5685 5686 5687 5689 5690 5691 5692 5694 5695 5696 5698 5698 5699 5700 5701 5702 5702 5703 5703 5703 5704 5704 5705 5704 5704 5703 5703 5704 5704 5704 5702 5700 5698 5697 5695 5693 5692 5690 5689
5671 5671 5672 5673 5674 5676 5677 5678 5680 5681 5682 5683 5684 5686 5687 5687 5688 5688 5689 5689 5690 5691 5691 5691 5691 5692 5692 5692 5692 5691 5691 5691 5691 5692 5691 5689 5687 5685 5683 5681 5680 5678 5676
5660 5661 5662 5663 5664 5665 5666 5667 5669 5670 5671 5672 5673 5674 5675 5676 5676 5676 5676 5677 5677 5678 5678 5678 5678 5679 5679 5679 5679 5679 5678 5678 5677 5677 5678 5678 5675 5673 5672 5670 5668 5666 5664
5650 5651 5652 5653 5654 5654 5655 5656 5657 5658 5659 5660 5661 5662 5663 5663 5664 5664 5664 5664 5665 5665 5665 5665 5666 5666 5666 5666 5666 5666 5665 5665 5665 5664 5664 5664 5663 5662 5660 5658 5656 5654 5652